Skip Page Navigation
NASA JPL Caltech
NASA Logo - Jet Propulsion Laboratory + View the NASA Portal
+ Center for Near-Earth Object Studies
JPL Home Earth Solar System Stars & Galaxies Technology
JPL Solar System Dynamics
BODIES ORBITS EPHEMERIDES TOOLS PHYSICAL DATA DISCOVERY FAQ SITE MAP
JPL Small-Body Database Browser
Search: [ help ]  
190218 (2006 BV223)
Classification: Main-belt Asteroid          SPK-ID: 2190218
Ephemeris | Orbit Diagram | Orbital Elements | Mission Design | Physical Parameters | Discovery Circumstances ]

[ show orbit diagram ]
Orbital Elements at Epoch 2459200.5 (2020-Dec-17.0) TDB
Reference: JPL 17 (heliocentric ecliptic J2000)
 Element Value Uncertainty (1-sigma)   Units 
e .09885607154501345 5.2424e-08  
a 2.845413961865105 2.5806e-08 au
q 2.564127515675788 1.4839e-07 au
i 2.735729557234002 7.2754e-06 deg
node 144.2006047500218 0.00010427 deg
peri 244.7021386611304 0.00011035 deg
M 141.0367945462529 3.3301e-05 deg
tp 2458513.674292460620
(2019-Jan-30.17429246)
0.00016315 TDB
period 1753.140061851653
4.80
2.385e-05
6.53e-08
d
yr
n .2053458293684595 2.7936e-09 deg/d
Q 3.126700408054422 2.8357e-08 au
  Orbit Determination Parameters
   # obs. used (total)      299  
   data-arc span      7766 days (21.26 yr)  
   first obs. used      1999-10-11  
   last obs. used      2021-01-14  
   planetary ephem.      DE431  
   SB-pert. ephem.      SB431-N16  
   condition code      0  
   norm. resid. RMS      .54775  
   source      ORB  
   producer      Otto Matic  
   solution date      2021-Feb-24 19:52:30  

Additional Information
 Earth MOID = 1.56912 au 
 Jupiter MOID = 2.29321 au 
 T_jup = 3.299 
[ show covariance matrix ]

Ephemeris | Orbit Diagram | Orbital Elements | Mission Design | Physical Parameters | Discovery Circumstances ]

Physical Parameter Table
Parameter Symbol Value Units Sigma Reference Notes
absolute magnitude H 16.15   n/a E2021B55  

190218 (2006 BV223)          Discovered 2006-Jan-30 by Spacewatch at Kitt Peak
Reference: 20080819/Numbers.arcLast Updated: 2008-08-25
Ephemeris | Orbit Diagram | Orbital Elements | Mission Design | Physical Parameters | Discovery Circumstances ]
ABOUT SSD CREDITS/AWARDS PRIVACY/COPYRIGHT GLOSSARY LINKS
FirstGov 2021-Apr-11 14:23 UT
(server date/time)  
NASA Home Page
Site Manager:   Ryan S. Park
Webmaster  Alan B. Chamberlin